Starlink 3071

operational
NORAD ID: 49147 Int'l Des: 2021-082 Owner: SPXS Country: US Constellation: starlink
LEOCIRCULAR

关于 Starlink 3071

正在加载描述...

实时位置

正在加载3D地球...

即将过境

高度历史

Altitude vs Time

uPlot chart will show altitude changes over time

两行轨道根数

1 49147U 21082T 25351.74893392 .00000761 00000-0 71527-4 0 9999
2 49147 70.0004 101.0614 0003330 267.2746 92.8032 14.98339033234695
Epoch: Dec 17, 2025 • Age: 12 hours

当前状态

高度 595.0 km
速度 7.56 km/s
星下点 -69.03°S, 168.04°E
发射日期 Sep 14, 2021
运行时间 4.2 years
类型 internet

技术详情

分类 Payload
质量 297.00 kg
干质量 275.00 kg
总质量 297.00 kg
长度 0.20 m
直径 2.80 m
跨度 9.00 m
形状 Box + pan
制造商 SPXS
平台类型 Starlink
阶段状态 In Orbit
所有者/国家 SPXS/US

大型星座

Loading constellations...